{"data":{"norad_id":62468,"intl_designator":"2024-254G","name":"STARLINK-11511 [DTC]","alt_names":[],"object_type":"PAYLOAD","status":"ACTIVE","operator":null,"country":"US","launch_date":"2024-12-31","launch_site_code":"AFETR","launch_vehicle":null,"mission":null,"orbit_class":"UNKNOWN","rcs_meters":null,"size_class":null,"mass_kg":null,"dimensions":null,"purposes":["comms"],"wikipedia_slug":null,"has_3d_model":false,"image_url":null,"decayed_at":null,"tle_current":{"epoch":"2026-09-20T21:45:26.021952Z","epoch_age_seconds":139446,"freshness":"FRESH","line1":"1 62468U 24254G   26263.90655118  .00102536  00000+0  79274-3 0  9995","line2":"2 62468  42.9998 126.2903 0001182 245.5517 114.5227 15.70840851100106","mean_motion":15.70840851,"eccentricity":0.0001182,"inclination_deg":42.9998,"raan_deg":126.2903,"arg_perigee_deg":245.5517,"mean_anomaly_deg":114.5227,"bstar":0.00079274,"rev_number":10010,"period_min":91.67064881737,"perigee_km":355.69659603022,"apogee_km":357.28866247457,"semimajor_km":6734.6296292524,"source":"CELESTRAK","updated_at":"2026-09-22T09:00:49.612252Z"}}}